This is the latest recevied weather packets stored in our database for station/object KC8BSD. If no packets are shown the sender has not sent any weather packets the latest 10 day(s).
| Time | Temp. | Humidity | Pressure | Rain* | Wind** | Luminosity | Snow |
|---|---|---|---|---|---|---|---|
| 1777807433 | 3.89° C | 67% | 1014.9 hPa | 0 mm | - | 37 W/m² | - |
| 1777807128 | 3.33° C | 69% | 1014.8 hPa | 0 mm | - | 32 W/m² | - |
| 1777806826 | 3.33° C | 69% | 1015 hPa | 0 mm | - | 26 W/m² | - |
| 1777806522 | 2.78° C | 70% | 1015 hPa | 0 mm | - | 23 W/m² | - |
| 1777806218 | 2.78° C | 70% | 1014.9 hPa | 0 mm | - | 20 W/m² | - |
| 1777805915 | 2.22° C | 71% | 1014.9 hPa | 0 mm | - | 17 W/m² | - |
| 1777805612 | 2.22° C | 71% | 1014.9 hPa | 0 mm | - | 14 W/m² | - |
| 1777805310 | 2.22° C | 71% | 1015 hPa | 0 mm | - | 11 W/m² | - |
| 1777805007 | 2.22° C | 71% | 1014.8 hPa | 0 mm | - | 7 W/m² | - |
| 1777804704 | 2.22° C | 71% | 1014.8 hPa | 0 mm | - | 5 W/m² | - |
| 1777804402 | 1.67° C | 72% | 1014.9 hPa | 0 mm | - | 2 W/m² | - |
| 1777804099 | 1.11° C | 74% | 1014.9 hPa | 0 mm | - | 1 W/m² | - |
| 1777803796 | 1.11° C | 76% | 1015 hPa | 0 mm | - | 0 W/m² | - |
| 1777803491 | 0.56° C | 79% | 1015 hPa | 0 mm | - | 0 W/m² | - |
| 1777803190 | 0.56° C | 80% | 1015.1 hPa | 0 mm | - | 0 W/m² | - |
| 1777802886 | 0.56° C | 80% | 1015.1 hPa | 0 mm | - | 0 W/m² | - |
| 1777802584 | 0° C | 81% | 1015.2 hPa | 0 mm | - | 0 W/m² | - |
| 1777802281 | 0° C | 82% | 1015.3 hPa | 0 mm | - | 0 W/m² | - |
| 1777801980 | 0° C | 82% | 1015.3 hPa | 0 mm | - | 0 W/m² | - |
| 1777801676 | 0° C | 82% | 1015.4 hPa | 0 mm | - | 0 W/m² | - |
| 1777801374 | 0° C | 82% | 1015.3 hPa | 0 mm | - | 0 W/m² | - |
| 1777801070 | 0° C | 82% | 1015.6 hPa | 0 mm | - | 0 W/m² | - |
| 1777800767 | 0° C | 82% | 1015.6 hPa | 0 mm | - | 0 W/m² | - |
| 1777800462 | -0.56° C | 82% | 1015.5 hPa | 0 mm | - | 0 W/m² | - |
| 1777800160 | -0.56° C | 82% | 1015.6 hPa | 0 mm | - | 0 W/m² | - |
* Rain latest hour (hover to see other rain measurements)
** Current wind speed in m/s (hover to see current wind gust speed)